Location: Newark
(41.0400°S, 62.7845°W)
Time: 03:10:26
(UTC+00:00)

Vanguard 2 Rocket - Pass Details

Date: 03 December 2021
Orbit: 554 x 3325 km, 32.9° (Epoch: 21 January)

Event Time Altitude Azimuth Distance (km) Brightness Sun altitude
Rises 06:48:24 0° 338° (NNW) 7,239 - -15.8°
Exits shadow 06:53:56 - 347° (NNW) 6,387 10.7 -15.2°
Reaches altitude 10° 06:54:41 10° 349° (NNW) 6,276 10.6 -15.1°
Maximum altitude 07:09:05 26° 35° (NE) 4,726 10.4 -13.2°
Drops below altitude 10° 07:20:54 10° 82° (E) 5,150 11.3 -11.6°
Sets 07:25:15 0° 94° (E) 5,764 11.9 -11.0°
